Location: Clairmont
(55.2667°N, 118.8000°W)
Time: 07:37:12
(UTC+00:00)

N. Korean satellite - Pass Details

Date: 02 November 2020
Orbit: 453 x 503 km, 97.2° (Epoch: 03 December)

Event Time Altitude Azimuth Distance (km) Brightness Sun altitude
Rises 00:50:28 0° 181° (S) 2,521 10.5 -5.5°
Reaches altitude 10° 00:52:36 10° 189° (S) 1,638 9.6 -5.8°
Maximum altitude 00:55:58 42° 261° (W) 686 8.0 -6.2°
Drops below altitude 10° 00:59:18 10° 334° (NNW) 1,627 9.4 -6.7°
Sets 01:01:25 0° 342° (NNW) 2,501 10.2 -7.0°
